This demonstration page uses our WeatherBlox Daily Observations layout. Learn more.

39.29038, -76.61219

Hourly Observations for July 2, 2016

Temp ( °F °C ) Dew Point ( °F °C ) Humidity (%) Winds ( mph kmh ) Pressure ( in mb ) Visibility ( mi km ) Precip ( " mm )
12:54 am 00:54 undefined 73 22.8 68 20 84 84 undefined N/A 29.93 1014 N/A 0 0
1:54 am 01:54 undefined 74 23.3 64 17.8 71 71 undefined N/A 29.94 1014 N/A 0 0
2:54 am 02:54 undefined 74 23.3 60 15.6 62 62 undefined N/A 29.94 1014 N/A 0 0
3:54 am 03:54 undefined 74 23.3 57 13.9 56 56 undefined N/A 29.95 1014 N/A 0 0
4:54 am 04:54 undefined 73 22.8 56 13.3 55 55 undefined N/A 29.98 1015 N/A 0 0
5:54 am 05:54 undefined 71 21.7 56 13.3 59 59 undefined N/A 30 1016 N/A 0 0
6:54 am 06:54 undefined 72 22.2 55 12.8 55 55 undefined N/A 30.03 1017 N/A 0 0
7:54 am 07:54 undefined 72 22.2 55 12.8 55 55 undefined N/A 30.05 1018 N/A 0 0
8:54 am 08:54 undefined 74 23.3 50 10 43 43 undefined N/A 30.06 1018 N/A 0 0
9:54 am 09:54 undefined 75 23.9 50 10 41 41 undefined N/A 30.07 1018 N/A 0 0
10:54 am 10:54 undefined 74 23.3 49 9.4 41 41 undefined N/A 30.07 1018 N/A 0 0
11:54 am 11:54 undefined 77 25 49 9.4 37 37 undefined N/A 30.08 1019 N/A 0 0
12:54 pm 12:54 undefined 78 25.6 48 8.9 35 35 undefined N/A 30.07 1018 N/A 0 0
1:54 pm 13:54 undefined 79 26.1 48 8.9 34 34 undefined N/A 30.06 1018 N/A 0 0
2:54 pm 14:54 undefined 79 26.1 48 8.9 34 34 undefined N/A 30.06 1018 N/A 0 0
3:54 pm 15:54 undefined 80 26.7 48 8.9 33 33 undefined N/A 30.06 1018 N/A 0 0
4:54 pm 16:54 undefined 79 26.1 50 10 36 36 undefined N/A 30.06 1018 N/A 0 0
5:54 pm 17:54 undefined 78 25.6 50 10 37 37 undefined N/A 30.07 1018 N/A 0 0
6:54 pm 18:54 undefined 77 25 50 10 39 39 undefined N/A 30.09 1019 N/A 0 0
7:54 pm 19:54 undefined 77 25 49 9.4 37 37 undefined N/A 30.09 1019 N/A 0 0
8:54 pm 20:54 undefined 76 24.4 49 9.4 39 39 undefined N/A 30.11 1020 N/A 0 0
9:54 pm 21:54 undefined 75 23.9 49 9.4 40 40 undefined N/A 30.11 1020 N/A 0 0
10:54 pm 22:54 undefined 74 23.3 50 10 43 43 undefined N/A 30.12 1020 N/A 0 0
11:54 pm 23:54 undefined 72 22.2 52 11.1 50 50 undefined N/A 30.11 1020 N/A 0 0

Powered by AerisWeather